User: anonymous   Login
Location: Sternwarte Stuttgart
(48.7670°N, 9.1830°E)
Time: 16:50:06
(UTC+01:00)
Language:

CZ-4B R/B - Orbit

View from above orbital plane
View from above orbital plane
View from above satellite
View from above satellite

Ground track
Ground track

The orbit data is extracted from the following two-line orbital elements,

1 27432U 02024C   19076.96871473 -.00000018 +00000-0 +14430-4 0  9990
2 27432 099.0644 066.9484 0050986 028.2766 028.4526 14.14076657868996
Epoch (UTC): 17 March 2019 23:14:56
Eccentricity: 0.0050986
inclination: 99.0644°
perigee height: 808 km
apogee height: 882 km
right ascension of ascending node: 66.9484°
argument of perigee: 28.2766°
revolutions per day: 14.14076657
mean anomaly at epoch: 28.4526°
orbit number at epoch: 86899

The dashed part of the orbit path shows where the satellite is in the earth's shadow,  

DLR